Weather in Timoshkino

Russia / Orenburg Oblast     53°23′04″N   53°26′30″E
temp.,
°C
wind,
m/s
gust,
m/s
humid.,
%
clouds,
%
prec.,
mm/h
press.,
hPa
HPBL,
m
31 july, sat
sat3123:00+20nne226623 0.0 100811
02:00+19se2271100 0.0 100817
05:00+19sse3371100 0.0 100840
08:00+21s366875 0.3 1008187
11:00+29sw57445 0.3 1007975
14:00+33wsw9132598 0.0 10063691
17:00+28wsw91240100 0.0 10071702
20:00+28wnw9114497 0.0 10071043
1 august, sun
sun123:00+23w3561100 0.2 100975
02:00+20w228393 1.8 101012
05:00+20wsw128513 2.0 101119
08:00+21w34785 0.0 1012195
11:00+27wnw46416 0.0 10131508
14:00+31w572770 0.0 10122903
17:00+32w582476 0.0 10113132
20:00+30nw462998 0.0 1011183
2 august, mon
mon223:00+23nne344165 0.0 101345
02:00+21ene3346100 0.0 101427
05:00+20ese115058 0.0 101411
08:00+24sw004111 0.0 101591
11:00+30wnw35315 0.0 10151558
14:00+33wnw462628 0.0 10142895
17:00+34wnw4621100 0.0 10133407
20:00+30nne222976 0.0 101218
3 august, tue
tue323:00+26e22323 0.0 101311
02:00+24se22373 0.0 101312
05:00+23s33395 0.0 101316
08:00+26sse233542 0.0 1013105
11:00+33ssw46243 0.0 1012992
14:00+37ssw571695 0.0 10104039
17:00+37ssw571698 0.0 10093278
20:00+31nw362424 0.1 1009109
4 august, wed
wed423:00+25ese694580 1.0 101080
02:00+22se22503 0.0 101112
05:00+22sse334816 0.1 101129
08:00+25se484115 0.1 1010197
11:00+33ssw562127 0.1 1010667
14:00+38w791199 0.0 10094639
17:00+38wsw571098 0.0 10074669
20:00+32nnw7102787 0.0 1009506